1484791200.44,23970,6.0,73922.8,-16.73,-47.99,-48.21,0,*60
1484791201.71,23971,6.0,73924.5,-16.69,-48.07,-48.35,0,*67
1484791202.98,23972,6.0,73922.5,-16.67,-48.13,-48.35,0,*6F
1484791204.21,23973,6.0,73924.8,-16.69,-48.49,-48.49,0,*64
1484791205.48,23974,6.0,73920.8,-16.69,-48.55,-48.69,0,*6C
1484791206.75,23975,6.0,73924.8,-16.69,-48.07,-48.27,0,*60
1484791208.04,23976,6.0,73922.0,-16.69,-47.93,-48.27,0,*61
1484791209.31,23977,6.0,73924.3,-16.67,-47.93,-48.13,0,*69
1484791210.58,23978,6.0,73926.3,-16.69,-47.93,-48.07,0,*6D
1484791211.83,23979,6.0,73922.3,-16.67,-48.07,-48.13,0,*65
1484791213.1,23980,6.0,73926.0,-16.69,-48.07,-48.27,0,*6A
1484791214.36,23981,6.0,73920.5,-16.69,-48.27,-48.49,0,*61
1484791215.61,23982,6.0,73922.0,-16.67,-48.07,-48.13,0,*61
1484791216.85,23983,6.0,73922.8,-16.67,-48.07,-48.27,0,*67
1484791218.1,23984,6.0,73924.5,-16.67,-47.93,-48.07,0,*60
1484791219.35,23985,6.0,73922.8,-16.67,-48.07,-48.13,0,*66
1484791220.61,23986,6.0,73918.8,-16.67,-48.27,-48.35,0,*63
1484791221.85,23987,6.0,73922.5,-16.67,-48.13,-48.49,0,*6E
1484791223.1,23988,6.0,73916.8,-16.65,-47.85,-48.21,0,*6D
1484791224.34,23989,6.0,73920.3,-16.65,-47.85,-48.07,0,*68
1484791225.6,23990,6.0,73922.3,-16.65,-48.27,-48.41,0,*65
1484791226.86,23991,6.0,73916.8,-16.65,-48.27,-48.41,0,*64
1484791228.1,23992,6.0,73918.3,-16.63,-47.79,-48.07,0,*67
1484791229.37,23993,6.0,73918.8,-16.65,-47.79,-48.07,0,*60
1484791230.61,23994,6.0,73922.3,-16.65,-48.21,-48.41,0,*67
1484791231.85,23995,6.0,73922.0,-16.65,-48.07,-48.21,0,*64
1484791233.12,23996,6.0,73920.8,-16.65,-47.79,-47.99,0,*6D
1484791234.36,23997,6.0,73922.5,-16.63,-48.07,-48.27,0,*66
1484791235.58,23998,6.0,73916.8,-16.63,-47.99,-48.21,0,*67
1484791236.79,23999,6.0,73918.3,-16.63,-47.99,-48.41,0,*60
1484791238.05,24000,6.0,73922.3,-16.65,-48.63,-48.91,0,*6F
1484791239.29,24001,6.0,73922.5,-16.65,-48.49,-48.63,0,*6B
1484791240.55,24002,6.0,73922.0,-16.63,-48.27,-48.27,0,*66
1484791241.76,24003,6.0,73924.0,-16.63,-48.41,-48.41,0,*67
1484791242.98,24004,6.0,73920.5,-16.63,-48.49,-48.63,0,*68
1484791244.21,24005,6.0,73920.8,-16.63,-48.27,-48.41,0,*61
1484791245.48,24006,6.0,73920.0,-16.63,-48.77,-49.11,0,*63
1484791246.72,24007,6.0,73920.0,-16.63,-48.63,-48.91,0,*6E
1484791248.0,24008,6.0,73922.5,-16.65,-48.69,-48.91,0,*6D
1484791249.22,24009,6.0,73920.8,-16.63,-48.49,-48.63,0,*65
1484791250.46,24010,6.0,73926.3,-16.65,-48.41,-48.63,0,*63
1484791251.72,24011,6.0,73922.5,-16.65,-48.27,-48.49,0,*6A
1484791252.98,24012,6.0,73920.5,-16.65,-48.63,-48.69,0,*6B
1484791254.24,24013,6.0,73922.8,-16.65,-48.63,-48.91,0,*6D
1484791255.45,24014,6.0,73922.5,-16.63,-48.49,-48.63,0,*69
1484791256.69,24015,6.0,73918.3,-16.65,-48.49,-48.63,0,*6E
1484791257.93,24016,6.0,73920.0,-16.63,-48.63,-48.69,0,*69
1484791259.2,24017,6.0,73920.8,-16.65,-48.49,-48.69,0,*66
1484791260.43,24018,6.0,73922.5,-16.65,-48.49,-48.49,0,*6B
1484791261.66,24019,6.0,73922.0,-16.63,-48.27,-48.49,0,*64
1484791262.89,24020,6.0,73924.0,-16.65,-48.41,-48.49,0,*68
1484791264.14,24021,6.0,73922.3,-16.63,-48.07,-48.27,0,*65
1484791265.35,24022,6.0,73920.3,-16.63,-48.21,-48.49,0,*6A
1484791266.59,24023,6.0,73924.8,-16.65,-48.21,-48.41,0,*65
1484791267.85,24024,6.0,73922.0,-16.65,-48.49,-48.91,0,*61
1484791269.08,24025,6.0,73924.3,-16.63,-48.69,-48.97,0,*62
1484791270.32,24026,6.0,73926.8,-16.63,-48.63,-48.69,0,*6A
1484791271.59,24027,6.0,73924.3,-16.65,-48.63,-48.69,0,*6D
1484791272.88,24028,6.0,73924.5,-16.65,-48.69,-48.91,0,*6F
1484791274.09,24029,6.0,73922.3,-16.63,-48.63,-48.63,0,*6F
1484791275.39,24030,6.0,73918.0,-16.65,-48.69,-49.11,0,*6F
1484791276.66,24031,6.0,73920.3,-16.63,-48.69,-48.69,0,*66
1484791277.9,24032,6.0,73922.3,-16.65,-48.63,-48.63,0,*63
1484791279.17,24033,6.0,73920.3,-16.65,-48.41,-48.69,0,*68
1484791280.43,24034,6.0,73918.8,-16.63,-48.69,-48.91,0,*64
1484791281.69,24035,6.0,73918.8,-16.65,-48.77,-48.97,0,*6A
1484791282.92,24036,6.0,73922.8,-16.65,-48.41,-48.49,0,*6F
1484791284.17,24037,6.0,73918.0,-16.63,-48.07,-48.27,0,*62
1484791285.4,24038,6.0,73918.5,-16.65,-48.21,-48.41,0,*6F
1484791286.64,24039,6.0,73918.8,-16.65,-48.41,-48.49,0,*60
1484791287.88,24040,6.0,73922.0,-16.65,-48.49,-48.63,0,*6E
1484791289.09,24041,6.0,73920.5,-16.63,-48.41,-48.49,0,*69
1484791290.32,24042,6.0,73922.0,-16.65,-48.41,-48.49,0,*6C
1484791291.56,24043,6.0,73920.0,-16.65,-48.41,-48.63,0,*65
1484791292.85,24044,6.0,73922.5,-16.65,-48.69,-48.69,0,*62
1484791294.14,24045,6.0,73918.8,-16.65,-48.69,-48.91,0,*64
1484791295.44,24046,6.0,73918.8,-16.65,-48.69,-48.69,0,*60
1484791296.67,24047,6.0,73920.3,-16.63,-48.27,-48.49,0,*6F
1484791297.93,24048,6.0,73920.8,-16.65,-48.27,-48.41,0,*6E
1484791299.19,24049,6.0,73920.8,-16.65,-48.27,-48.41,0,*6F
1484791300.43,24050,6.0,73922.5,-16.65,-48.49,-48.63,0,*6F
1484791301.67,24051,6.0,73918.0,-16.63,-48.21,-48.27,0,*66
1484791302.91,24052,6.0,73916.8,-16.63,-48.63,-48.69,0,*69
1484791304.2,24053,6.0,73918.0,-16.65,-48.77,-49.11,0,*65
1484791305.44,24054,6.0,73920.3,-16.65,-48.49,-48.63,0,*6B
1484791306.68,24055,6.0,73922.5,-16.65,-47.99,-48.21,0,*6E
1484791307.89,24056,6.0,73922.5,-16.63,-48.21,-48.41,0,*61
1484791309.14,24057,6.0,73922.8,-16.65,-48.49,-48.63,0,*68
1484791310.37,24058,6.0,73920.8,-16.65,-48.21,-48.41,0,*69
1484791311.61,24059,6.0,73922.3,-16.65,-48.63,-48.63,0,*6E
1484791312.85,24060,6.0,73920.5,-16.63,-48.27,-48.49,0,*6A
1484791314.08,24061,6.0,73916.5,-16.65,-48.21,-48.49,0,*6B
1484791315.35,24062,6.0,73924.3,-16.65,-48.07,-48.27,0,*64
1484791316.61,24063,6.0,73916.0,-16.65,-47.99,-48.27,0,*6D
1484791317.83,24064,6.0,73918.5,-16.63,-47.99,-48.21,0,*6A
1484791319.09,24065,6.0,73922.5,-16.63,-48.27,-48.27,0,*67
1484791320.36,24066,6.0,73920.0,-16.63,-48.69,-49.11,0,*6A
1484791321.59,24067,6.0,73920.8,-16.65,-48.49,-48.49,0,*63
1484791322.81,24068,6.0,73922.3,-16.63,-48.41,-48.63,0,*6A
1484791324.07,24069,6.0,73920.5,-16.65,-48.27,-48.49,0,*65
1484791325.27,24070,6.0,73920.8,-16.63,-48.41,-48.49,0,*6B
1484791326.49,24071,6.0,73920.0,-16.63,-48.41,-48.63,0,*62
1484791327.71,24072,6.0,73916.3,-16.63,-48.07,-48.07,0,*61
1484791328.95,24073,6.0,73920.0,-16.63,-48.27,-48.63,0,*60
1484791330.22,24074,6.0,73918.0,-16.63,-48.77,-48.91,0,*6F
1484791331.48,24075,6.0,73916.8,-16.65,-48.49,-48.69,0,*62
1484791332.74,24076,6.0,73920.5,-16.65,-48.63,-48.91,0,*6E
1484791334.0,24077,6.0,73918.8,-16.65,-48.69,-48.97,0,*63
1484791335.29,24078,6.0,73920.5,-16.65,-48.69,-48.91,0,*6A
1484791336.55,24079,6.0,73920.0,-16.65,-48.63,-48.91,0,*61
1484791337.8,24080,6.0,73922.8,-16.65,-48.27,-48.49,0,*62
1484791339.04,24081,6.0,73920.3,-16.63,-48.63,-48.69,0,*67
1484791340.3,24082,6.0,73922.3,-16.65,-48.63,-48.91,0,*65
1484791341.56,24083,6.0,73922.0,-16.65,-48.63,-48.91,0,*64
1484791342.85,24084,6.0,73922.3,-16.65,-48.69,-48.69,0,*6E
1484791344.13,24085,6.0,73920.0,-16.67,-48.69,-48.77,0,*62
1484791345.36,24086,6.0,73920.5,-16.65,-48.49,-48.49,0,*6C
1484791346.62,24087,6.0,73922.8,-16.65,-48.63,-48.69,0,*67
1484791347.88,24088,6.0,73922.5,-16.65,-48.63,-48.91,0,*6F
1484791349.18,24089,6.0,73918.3,-16.65,-48.69,-49.11,0,*6D
1484791350.42,24090,6.0,73922.3,-16.65,-48.49,-48.63,0,*63
1484791351.71,24091,6.0,73922.5,-16.65,-48.69,-48.69,0,*6A
1484791352.99,24092,6.0,73920.3,-16.67,-48.69,-48.69,0,*6B
1484791354.21,24093,6.0,73922.5,-16.67,-48.55,-48.55,0,*6A
1484791355.45,24094,6.0,73922.0,-16.65,-48.63,-48.63,0,*6F
1484791356.72,24095,6.0,73918.8,-16.67,-48.69,-48.77,0,*63
1484791358.0,24096,6.0,73922.8,-16.67,-48.69,-48.77,0,*60
1484791359.24,24097,6.0,73920.8,-16.67,-48.55,-48.77,0,*6E
1484791360.48,24098,6.0,73918.8,-16.67,-48.55,-48.69,0,*6E
1484791361.71,24099,6.0,73922.8,-16.67,-48.49,-48.55,0,*6D
1484791362.93,24100,6.0,73926.5,-16.67,-48.49,-48.55,0,*6C
1484791364.17,24101,6.0,73924.0,-16.67,-48.55,-48.69,0,*6F
1484791365.41,24102,6.0,73920.0,-16.65,-48.63,-48.63,0,*61
1484791366.67,24103,6.0,73922.0,-16.65,-48.63,-48.91,0,*6D
1484791367.88,24104,6.0,73920.0,-16.63,-48.41,-48.41,0,*61
1484791369.12,24105,6.0,73922.8,-16.65,-47.99,-48.21,0,*6A
1484791370.36,24106,6.0,73920.8,-16.67,-48.27,-48.49,0,*6F
1484791371.65,24107,6.0,73920.8,-16.65,-48.69,-48.69,0,*64
1484791372.92,24108,6.0,73920.8,-16.65,-48.69,-48.63,0,*61
1484791374.22,24109,6.0,73920.3,-16.65,-48.69,-48.69,0,*6A
1484791375.51,24110,6.0,73926.5,-16.65,-48.77,-48.91,0,*6A
1484791376.73,24111,6.0,73924.5,-16.67,-48.55,-48.55,0,*61
1484791378.0,24112,6.0,73926.0,-16.67,-48.69,-48.69,0,*62
1484791379.26,24113,6.0,73922.8,-16.69,-48.77,-48.97,0,*63
1484791380.5,24114,6.0,73920.0,-16.67,-48.97,-49.19,0,*63
1484791381.74,24115,6.0,73922.0,-16.67,-48.77,-48.97,0,*6B
1484791383.0,24116,6.0,73924.8,-16.69,-48.77,-49.05,0,*6C
1484791384.24,24117,6.0,73924.0,-16.67,-48.77,-48.97,0,*69
1484791385.5,24118,6.0,73922.8,-16.69,-48.77,-48.97,0,*68
1484791386.8,24119,6.0,73920.0,-16.69,-48.69,-48.77,0,*68
1484791388.05,24120,6.0,73922.5,-16.69,-48.35,-48.49,0,*66
1484791389.3,24121,6.0,73920.5,-16.67,-48.49,-48.69,0,*60
1484791390.55,24122,6.0,73922.8,-16.69,-48.97,-49.19,0,*68
1484791391.78,24123,6.0,73924.8,-16.67,-48.55,-48.55,0,*60
1484791393.05,24124,6.0,73926.3,-16.69,-48.55,-48.69,0,*66
1484791394.31,24125,6.0,73922.3,-16.69,-48.35,-48.55,0,*6E
1484791395.6,24126,6.0,73920.3,-16.69,-48.13,-48.27,0,*6C
1484791396.82,24127,6.0,73922.8,-16.67,-48.83,-49.05,0,*6B
1484791398.11,24128,6.0,73922.5,-16.69,-48.77,-48.77,0,*65
1484791399.38,24129,6.0,73922.8,-16.69,-48.55,-48.77,0,*64
1484791400.67,24130,6.0,73922.0,-16.69,-48.77,-48.69,0,*63
1484791401.95,24131,6.0,73922.8,-16.67,-48.69,-48.77,0,*6C
1484791403.19,24132,6.0,73922.5,-16.69,-48.55,-48.55,0,*6E
1484791404.46,24133,6.0,73922.5,-16.69,-48.55,-48.69,0,*60
1484791405.7,24134,6.0,73922.5,-16.67,-48.35,-48.55,0,*60
1484791406.97,24135,6.0,73920.3,-16.69,-48.55,-48.69,0,*66
1484791408.26,24136,6.0,73920.3,-16.69,-48.77,-49.19,0,*63
1484791409.55,24137,6.0,73918.8,-16.69,-48.69,-48.77,0,*64
1484791410.79,24138,6.0,73924.5,-16.69,-48.55,-48.97,0,*6A
1484791412.08,24139,6.0,73922.5,-16.73,-48.91,-49.11,0,*67
1484791413.34,24140,6.0,73922.8,-16.69,-48.97,-49.19,0,*6C
1484791414.58,24141,6.0,73920.0,-16.73,-48.41,-48.63,0,*61
1484791415.83,24142,6.0,73920.5,-16.73,-48.55,-48.55,0,*62
1484791417.1,24143,6.0,73922.0,-16.73,-48.77,-48.63,0,*66
1484791418.35,24144,6.0,73924.3,-16.73,-48.21,-48.55,0,*67
1484791419.59,24145,6.0,73922.8,-16.73,-48.55,-48.63,0,*60
1484791420.85,24146,6.0,73922.8,-16.69,-48.77,-48.97,0,*63
1484791422.15,24147,6.0,73922.3,-16.69,-48.69,-48.69,0,*6C
1484791423.43,24148,6.0,73922.3,-16.69,-48.35,-48.35,0,*63
1484791424.72,24149,6.0,73922.5,-16.69,-48.35,-48.69,0,*6B
1484791425.96,24150,6.0,73920.5,-16.73,-48.63,-48.63,0,*61
1484791427.22,24151,6.0,73920.3,-16.73,-48.35,-48.41,0,*63
1484791428.45,24152,6.0,73922.0,-16.69,-48.49,-48.49,0,*68
1484791429.71,24153,6.0,73924.3,-16.69,-48.35,-48.49,0,*62
1484791431.0,24154,6.0,73922.5,-16.69,-48.27,-48.35,0,*6D
1484791432.29,24155,6.0,73920.5,-16.69,-48.13,-48.27,0,*68
1484791433.53,24156,6.0,73920.3,-16.69,-48.49,-48.49,0,*6C
1484791434.79,24157,6.0,73920.3,-16.67,-48.27,-48.35,0,*60
1484791436.09,24158,6.0,73922.0,-16.69,-48.69,-48.69,0,*62
1484791437.32,24159,6.0,73920.5,-16.69,-48.83,-49.05,0,*6C
1484791438.59,24160,6.0,73922.5,-16.67,-48.27,-48.35,0,*64
1484791439.84,24161,6.0,73922.0,-16.69,-48.55,-48.55,0,*68
1484791441.1,24162,6.0,73920.0,-16.69,-48.55,-48.77,0,*6B
1484791442.37,24163,6.0,73922.8,-16.69,-48.49,-48.69,0,*68
1484791443.64,24164,6.0,73920.3,-16.67,-48.13,-48.27,0,*64
1484791444.89,24165,6.0,73922.5,-16.69,-48.35,-48.49,0,*67
1484791446.19,24166,6.0,73922.5,-16.69,-48.69,-48.69,0,*6F
1484791447.44,24167,6.0,73920.5,-16.69,-48.35,-48.49,0,*65
1484791448.71,24168,6.0,73922.5,-16.69,-48.49,-48.69,0,*63
1484791449.98,24169,6.0,73922.3,-16.69,-48.13,-48.49,0,*6F
1484791451.24,24170,6.0,73922.3,-16.69,-48.69,-48.97,0,*69
1484791452.53,24171,6.0,73922.8,-16.69,-48.27,-48.35,0,*6A
1484791453.75,24172,6.0,73920.8,-16.67,-48.49,-48.55,0,*69
1484791455.01,24173,6.0,73918.3,-16.69,-48.77,-48.97,0,*65
1484791456.31,24174,6.0,73916.0,-16.69,-48.69,-48.69,0,*6C
1484791457.55,24175,6.0,73916.5,-16.69,-48.55,-48.55,0,*6D
1484791458.82,24176,6.0,73918.0,-16.69,-48.69,-48.97,0,*6F
1484791460.11,24177,6.0,73922.5,-16.69,-48.69,-48.77,0,*60
1484791461.38,24178,6.0,73922.0,-16.69,-48.49,-48.69,0,*62
1484791462.64,24179,6.0,73920.3,-16.69,-48.13,-48.49,0,*6E
1484791463.91,24180,6.0,73922.5,-16.73,-48.35,-48.63,0,*6F
1484791465.17,24181,6.0,73920.3,-16.69,-48.77,-48.97,0,*68
1484791466.46,24182,6.0,73922.8,-16.69,-48.69,-48.69,0,*65
1484791467.73,24183,6.0,73916.8,-16.73,-48.83,-48.77,0,*64
1484791468.97,24184,6.0,73922.5,-16.73,-48.41,-48.63,0,*68
1484791470.26,24185,6.0,73922.3,-16.69,-48.27,-48.35,0,*61
1484791471.48,24186,6.0,73922.0,-16.67,-48.49,-48.55,0,*62
1484791472.78,24187,6.0,73920.8,-16.69,-48.69,-48.69,0,*60
1484791474.07,24188,6.0,73918.8,-16.69,-48.69,-48.69,0,*6F
1484791475.34,24189,6.0,73922.5,-16.69,-48.55,-48.69,0,*61
1484791476.6,24190,6.0,73922.0,-16.69,-48.27,-48.49,0,*6E
1484791477.89,24191,6.0,73922.0,-16.73,-48.77,-48.77,0,*6C
1484791479.14,24192,6.0,73922.0,-16.73,-48.55,-48.55,0,*6F
1484791480.41,24193,6.0,73922.8,-16.73,-48.13,-48.41,0,*69
1484791481.67,24194,6.0,73918.0,-16.73,-48.35,-48.63,0,*6A
1484791482.94,24195,6.0,73922.3,-16.73,-48.55,-48.77,0,*68
1484791484.2,24196,6.0,73922.5,-16.69,-48.77,-48.97,0,*6E
1484791485.44,24197,6.0,73922.0,-16.73,-48.41,-48.63,0,*6A
1484791486.71,24198,6.0,73922.5,-16.73,-48.63,-48.77,0,*60
1484791487.98,24199,6.0,73922.3,-16.73,-48.77,-49.05,0,*60
1484791489.21,24200,6.0,73922.3,-16.73,-48.83,-49.05,0,*68
1484791490.48,24201,6.0,73920.8,-16.73,-48.91,-49.05,0,*6A
1484791491.77,24202,6.0,73922.5,-16.73,-48.77,-48.77,0,*65
1484791493.02,24203,6.0,73924.3,-16.73,-48.41,-48.55,0,*61
1484791494.26,24204,6.0,73922.0,-16.73,-48.63,-48.63,0,*63
1484791495.5,24205,6.0,73920.8,-16.73,-48.83,-49.05,0,*6D
1484791496.77,24206,6.0,73924.0,-16.73,-48.77,-48.83,0,*6A
1484791497.99,24207,6.0,73922.0,-16.75,-48.55,-48.63,0,*63
1484791499.23,24208,6.0,73922.5,-16.69,-48.55,-48.55,0,*64
1484791500.48,24209,6.0,73920.3,-16.73,-48.55,-48.63,0,*6B
1484791501.72,24210,6.0,73924.3,-16.73,-48.41,-48.63,0,*66
1484791502.94,24211,6.0,73924.3,-16.75,-48.41,-48.55,0,*64
1484791504.19,24212,6.0,73922.8,-16.73,-48.41,-48.55,0,*61
1484791505.43,24213,6.0,73924.3,-16.73,-48.55,-48.83,0,*6E
1484791506.69,24214,6.0,73922.5,-16.73,-48.63,-48.77,0,*67
1484791507.99,24215,6.0,73920.5,-16.73,-48.77,-49.11,0,*62
1484791509.23,24216,6.0,73922.0,-16.75,-48.77,-48.83,0,*6D
1484791510.53,24217,6.0,73920.0,-16.73,-48.77,-48.77,0,*61
1484791511.77,24218,6.0,73920.5,-16.75,-48.55,-48.77,0,*68
1484791512.99,24219,6.0,73926.8,-16.75,-48.63,-48.83,0,*67
1484791514.25,24220,6.0,73922.0,-16.73,-48.91,-49.25,0,*6B
1484791515.49,24221,6.0,73922.0,-16.75,-49.11,-49.25,0,*65
1484791516.73,24222,6.0,73924.3,-16.73,-48.83,-49.25,0,*6A
1484791517.99,24223,6.0,73922.8,-16.73,-48.83,-49.11,0,*6C
1484791519.23,24224,6.0,73924.3,-16.75,-48.83,-49.11,0,*6D
1484791520.47,24225,6.0,73918.5,-16.75,-48.83,-49.11,0,*6C
1484791521.72,24226,6.0,73924.8,-16.75,-48.77,-48.83,0,*6E
1484791522.94,24227,6.0,73922.8,-16.75,-48.55,-48.63,0,*61
1484791524.16,24228,6.0,73922.5,-16.75,-48.41,-48.63,0,*6B
1484791525.45,24229,6.0,73922.3,-16.73,-48.77,-48.77,0,*6C
1484791526.69,24230,6.0,73922.5,-16.77,-48.97,-49.33,0,*6F
1484791527.94,24231,6.0,73920.3,-16.75,-48.83,-49.11,0,*69
1484791529.18,24232,6.0,73920.5,-16.73,-48.41,-48.63,0,*66
1484791530.44,24233,6.0,73920.3,-16.75,-48.35,-48.35,0,*61
1484791531.66,24234,6.0,73924.0,-16.75,-48.55,-48.55,0,*66
1484791532.96,24235,6.0,73920.8,-16.73,-48.77,-49.11,0,*60
1484791534.17,24236,6.0,73922.8,-16.75,-49.05,-49.25,0,*66
1484791535.42,24237,6.0,73924.5,-16.75,-48.63,-48.77,0,*60
1484791536.66,24238,6.0,73924.3,-16.75,-48.35,-48.55,0,*6C
1484791537.88,24239,6.0,73926.5,-16.75,-48.63,-49.05,0,*6A
1484791539.12,24240,6.0,73922.5,-16.75,-48.91,-49.25,0,*6B
1484791540.34,24241,6.0,73920.3,-16.75,-49.05,-49.33,0,*61
1484791541.56,24242,6.0,73922.3,-16.75,-48.55,-48.63,0,*62
1484791542.77,24243,6.0,73922.0,-16.75,-48.63,-48.83,0,*68
1484791544.01,24244,6.0,73924.0,-16.75,-48.91,-49.25,0,*6F
1484791545.31,24245,6.0,73926.0,-16.77,-48.91,-49.11,0,*6B
1484791546.55,24246,6.0,73926.8,-16.77,-48.49,-48.63,0,*69
1484791547.83,24247,6.0,73920.5,-16.77,-48.69,-48.83,0,*64
1484791549.09,24248,6.0,73922.5,-16.77,-48.83,-48.91,0,*6C
1484791550.35,24249,6.0,73924.0,-16.77,-48.83,-48.91,0,*6D
1484791551.62,24250,6.0,73922.0,-16.77,-48.83,-48.69,0,*62
1484791552.91,24251,6.0,73920.8,-16.77,-48.69,-48.91,0,*60
1484791554.18,24252,6.0,73920.8,-16.77,-48.83,-49.11,0,*6E
1484791555.45,24253,6.0,73924.3,-16.77,-48.97,-49.11,0,*6A
1484791556.69,24254,6.0,73918.8,-16.79,-48.97,-49.11,0,*63
1484791557.98,24255,6.0,73920.0,-16.77,-48.91,-49.19,0,*62
1484791559.27,24256,6.0,73920.0,-16.77,-49.11,-49.53,0,*66
1484791560.53,24257,6.0,73918.8,-16.79,-48.91,-49.19,0,*6E
1484791561.8,24258,6.0,73922.8,-16.79,-48.69,-48.69,0,*60
1484791563.08,24259,6.0,73922.5,-16.77,-48.69,-48.83,0,*6B
1484791564.32,24260,6.0,73922.3,-16.79,-48.49,-48.69,0,*69
1484791565.62,24261,6.0,73918.0,-16.77,-48.69,-49.11,0,*6A
1484791566.89,24262,6.0,73926.3,-16.77,-48.41,-48.69,0,*6D
1484791568.14,24263,6.0,73920.8,-16.79,-48.63,-48.69,0,*62
1484791569.36,24264,6.0,73922.5,-16.79,-48.49,-48.63,0,*67
1484791570.6,24265,6.0,73920.3,-16.79,-48.69,-48.83,0,*6A
1484791571.82,24266,6.0,73918.8,-16.79,-48.49,-48.63,0,*65
1484791573.04,24267,6.0,73922.0,-16.79,-48.49,-48.63,0,*64
1484791574.29,24268,6.0,73920.5,-16.79,-48.49,-48.69,0,*61
1484791575.53,24269,6.0,73922.8,-16.79,-48.21,-48.27,0,*64
1484791576.75,24270,6.0,73922.3,-16.79,-48.49,-48.63,0,*62
1484791578.02,24271,6.0,73920.8,-16.77,-48.41,-48.69,0,*6F
1484791579.29,24272,6.0,73922.8,-16.77,-48.49,-48.69,0,*64
1484791580.51,24273,6.0,73924.0,-16.79,-48.07,-48.41,0,*6B
1484791581.76,24274,6.0,73920.3,-16.77,-48.41,-48.63,0,*60
1484791583.03,24275,6.0,73920.8,-16.79,-48.69,-48.91,0,*68
1484791584.27,24276,6.0,73920.3,-16.77,-48.63,-48.63,0,*62
1484791585.49,24277,6.0,73918.0,-16.79,-48.63,-48.63,0,*6D
1484791586.74,24278,6.0,73920.5,-16.77,-48.41,-48.63,0,*6C
1484791587.98,24279,6.0,73916.8,-16.77,-48.63,-48.63,0,*6D
1484791589.26,24280,6.0,73922.0,-16.79,-48.69,-48.69,0,*65
1484791590.56,24281,6.0,73922.3,-16.77,-48.69,-49.11,0,*64
1484791591.8,24282,6.0,73920.8,-16.79,-48.83,-48.91,0,*64
1484791593.01,24283,6.0,73920.8,-16.79,-48.63,-48.63,0,*66
1484791594.26,24284,6.0,73920.8,-16.77,-48.41,-48.63,0,*6F
1484791595.53,24285,6.0,73920.5,-16.77,-48.63,-48.69,0,*64
1484791596.81,24286,6.0,73916.8,-16.79,-48.69,-48.69,0,*63
1484791598.05,24287,6.0,73918.0,-16.79,-48.49,-48.69,0,*60
1484791599.32,24288,6.0,73922.5,-16.77,-48.63,-48.69,0,*69
1484791600.54,24289,6.0,73920.3,-16.79,-48.63,-48.63,0,*6C
1484791601.81,24290,6.0,73916.3,-16.77,-48.49,-48.69,0,*68
1484791603.05,24291,6.0,73920.0,-16.79,-48.49,-48.69,0,*67
1484791604.26,24292,6.0,73920.0,-16.79,-48.41,-48.49,0,*6E
1484791605.48,24293,6.0,73920.3,-16.79,-48.49,-48.83,0,*61
1484791606.72,24294,6.0,73918.8,-16.77,-48.41,-48.49,0,*66
1484791607.96,24295,6.0,73924.3,-16.77,-48.41,-48.49,0,*67
1484791609.2,24296,6.0,73920.0,-16.79,-48.63,-48.69,0,*68
1484791610.45,24297,6.0,73916.5,-16.77,-48.41,-48.63,0,*6D
1484791611.72,24298,6.0,73918.8,-16.77,-48.07,-48.27,0,*60
1484791612.99,24299,6.0,73918.8,-16.77,-48.27,-48.63,0,*63
1484791614.21,24300,6.0,73920.3,-16.79,-48.49,-48.83,0,*6A
1484791615.42,24301,6.0,73922.5,-16.79,-48.21,-48.41,0,*6B
1484791616.67,24302,6.0,73920.5,-16.77,-48.21,-48.41,0,*66
1484791617.91,24303,6.0,73918.3,-16.79,-48.63,-48.69,0,*65
1484791619.19,24304,6.0,73922.0,-16.79,-48.69,-48.69,0,*68
1484791620.46,24305,6.0,73920.8,-16.77,-48.21,-48.27,0,*61
1484791621.73,24306,6.0,73918.8,-16.77,-48.69,-48.83,0,*60
1484791622.98,24307,6.0,73914.8,-16.75,-48.35,-48.55,0,*61
1484791624.22,24308,6.0,73922.5,-16.79,-48.07,-48.27,0,*66
1484791625.47,24309,6.0,73922.0,-16.77,-48.21,-48.41,0,*6D
1484791626.71,24310,6.0,73922.3,-16.75,-48.21,-48.35,0,*64
1484791627.93,24311,6.0,73916.8,-16.75,-48.55,-48.63,0,*65
1484791629.18,24312,6.0,73918.0,-16.75,-48.63,-48.77,0,*66
1484791630.42,24313,6.0,73918.8,-16.77,-48.63,-48.83,0,*6E
1484791631.64,24314,6.0,73916.3,-16.75,-48.55,-48.63,0,*60
1484791632.86,24315,6.0,73920.0,-16.75,-48.55,-48.63,0,*61
1484791634.08,24316,6.0,73916.8,-16.75,-48.63,-48.63,0,*67
1484791635.35,24317,6.0,73916.5,-16.75,-48.77,-48.77,0,*66
1484791636.58,24318,6.0,73914.8,-16.75,-48.35,-48.41,0,*6A
1484791637.85,24319,6.0,73918.8,-16.77,-48.49,-48.69,0,*68
1484791639.1,24320,6.0,73920.5,-16.75,-48.21,-48.35,0,*67
1484791640.32,24321,6.0,73918.5,-16.75,-48.21,-48.41,0,*65
1484791641.56,24322,6.0,73916.3,-16.75,-48.35,-48.55,0,*66
1484791642.78,24323,6.0,73920.5,-16.75,-48.55,-48.63,0,*64
1484791644.05,24324,6.0,73920.5,-16.77,-48.27,-48.63,0,*64
1484791645.29,24325,6.0,73918.8,-16.77,-48.41,-48.63,0,*65
1484791646.56,24326,6.0,73918.0,-16.73,-48.55,-48.77,0,*62
1484791647.78,24327,6.0,73916.8,-16.75,-48.41,-48.55,0,*60
1484791649.01,24328,6.0,73922.0,-16.75,-48.55,-48.55,0,*6A
1484791650.28,24329,6.0,73922.0,-16.77,-48.49,-48.69,0,*6B
1484791651.58,24330,6.0,73920.3,-16.77,-48.69,-48.69,0,*61
1484791652.82,24331,6.0,73922.5,-16.77,-48.63,-48.83,0,*6E
1484791654.08,24332,6.0,73920.8,-16.77,-48.27,-48.49,0,*6B
1484791655.35,24333,6.0,73916.3,-16.77,-48.69,-48.83,0,*66
1484791656.65,24334,6.0,73918.3,-16.77,-48.69,-48.69,0,*65
1484791657.93,24335,6.0,73922.0,-16.77,-48.21,-48.27,0,*62
1484791659.16,24336,6.0,73916.0,-16.75,-48.35,-48.41,0,*66
1484791660.4,24337,6.0,73922.5,-16.77,-48.41,-48.49,0,*6E
1484791661.64,24338,6.0,73918.0,-16.77,-48.41,-48.63,0,*69
1484791662.91,24339,6.0,73924.0,-16.77,-48.63,-48.69,0,*62
1484791664.18,24340,6.0,73922.3,-16.75,-48.77,-48.77,0,*64
1484791665.43,24341,6.0,73920.8,-16.75,-48.35,-48.55,0,*63
1484791666.67,24342,6.0,73920.8,-16.75,-48.83,-49.11,0,*6C
1484791667.89,24343,6.0,73920.0,-16.75,-48.55,-48.55,0,*67
1484791669.13,24344,6.0,73920.0,-16.75,-48.63,-48.77,0,*65
1484791670.35,24345,6.0,73920.3,-16.75,-48.83,-48.83,0,*61
1484791671.59,24346,6.0,73922.5,-16.75,-48.77,-48.83,0,*69
1484791672.84,24347,6.0,73922.8,-16.75,-48.63,-48.77,0,*66
1484791674.07,24348,6.0,73922.0,-16.75,-48.35,-48.63,0,*6F
1484791675.32,24349,6.0,73920.5,-16.75,-48.63,-48.77,0,*68
1484791676.54,24350,6.0,73922.0,-16.75,-48.55,-48.63,0,*60
1484791677.76,24351,6.0,73920.0,-16.75,-48.21,-48.41,0,*62
1484791679.02,24352,6.0,73920.5,-16.73,-48.63,-48.77,0,*64
1484791680.24,24353,6.0,73922.0,-16.75,-48.83,-49.05,0,*69
1484791681.48,24354,6.0,73918.0,-16.75,-48.63,-48.77,0,*64
1484791682.7,24355,6.0,73920.5,-16.75,-48.55,-48.63,0,*65
1484791683.92,24356,6.0,73918.8,-16.75,-48.41,-48.55,0,*66
1484791685.17,24357,6.0,73922.5,-16.77,-48.63,-48.83,0,*6E
1484791686.44,24358,6.0,73924.0,-16.77,-48.63,-48.69,0,*65
1484791687.71,24359,6.0,73920.5,-16.77,-48.69,-48.83,0,*6A
1484791688.98,24360,6.0,73922.8,-16.77,-48.97,-49.11,0,*6B
1484791690.28,24361,6.0,73922.0,-16.77,-48.69,-48.69,0,*65
1484791691.53,24362,6.0,73924.0,-16.79,-48.69,-48.83,0,*6C
1484791692.8,24363,6.0,73922.8,-16.77,-48.63,-48.69,0,*6D
1484791694.1,24364,6.0,73920.3,-16.77,-48.69,-49.11,0,*6E
1484791695.37,24365,6.0,73922.3,-16.77,-48.69,-48.83,0,*65
1484791696.64,24366,6.0,73924.0,-16.77,-48.63,-48.69,0,*68
1484791697.91,24367,6.0,73922.3,-16.77,-48.49,-48.69,0,*61
1484791699.13,24368,6.0,73920.8,-16.79,-48.63,-48.83,0,*6C
1484791700.42,24369,6.0,73922.3,-16.77,-48.91,-49.11,0,*64
1484791701.66,24370,6.0,73922.5,-16.77,-48.83,-48.83,0,*65
1484791702.95,24371,6.0,73924.3,-16.77,-48.91,-48.91,0,*64
1484791704.2,24372,6.0,73924.0,-16.77,-48.49,-48.63,0,*6F
1484791705.47,24373,6.0,73918.8,-16.77,-48.49,-48.69,0,*64
1484791706.74,24374,6.0,73920.0,-16.77,-48.63,-48.69,0,*6B
1484791707.95,24375,6.0,73918.3,-16.79,-48.83,-48.83,0,*6E
1484791709.2,24376,6.0,73922.5,-16.79,-48.69,-48.83,0,*69